World > North America > United States > New York

Hourly North Boston, NY Regional Weather

Feedback E-mail the Weather

Latest News

North Boston, NY Weather Maps

°F °C°F °C
North Boston Weather Map
UTC Time: 5/27/2022, 07:03
Your Time:

North Boston, NY Regional Weather

Expires:202205270700;;636514
ASUS41 KALY 270610
RWRALY

NEW YORK STATE HOURLY WEATHER ROUNDUP
NATIONAL WEATHER SERVICE ALBANY NY
200 AM EDT FRI MAY 27 2022

NOTE: "FAIR" INDICATES FEW OR NO CLOUDS BELOW 12,000 FEET WITH NO
SIGNIFICANT WEATHER AND/OR NO OBSTRUCTIONS TO VISIBILITY.


NYZ001>004-010>016-019>021-085-270700-
WEST

  
CITY           SKY/WX    TMP DP  RH WIND       PRES   REMARKS
NIAGARA FALLS  CLOUDY    69  63  81 S9        29.80F                  
BUFFALO        LGT RAIN  69  64  84 S21       29.82F                  
DUNKIRK        LGT RAIN  69  65  86 SW10      29.83F                  
JAMESTOWN      LGT RAIN  64  63  96 S7        29.89F                  
WELLSVILLE     MOCLDY    65  59  81 S12G22    29.94F                  
ROCHESTER      LGT RAIN  67  62  84 S8        29.85F                  
PENN YAN       MOCLDY    68  59  73 S13       29.90F                  
$$

             KEY
       WCI = WIND CHILL INDEX
       VSB = VISIBILITY
       HX  = HEAT INDEX
$$
  

SKY/WX - Weather  TMP - Temperature  DP - Dew Point  RH - Humidity
WIND - Wind Direction/Speed PRES - Barometric Pressure VSB - Visibility
WCI - Wind Chill Index E13G22 Wind - East Wind 13 mph/Gusts of 22 mph

Trending Headlines

North Boston Radar Loop



North Boston Quick Facts


National Two Day Weather Forecast


E-mail the North Boston Weather Forecast

Voice your opinion or tell us about page issues...